2020,01,13,00,00,00,138.5,,,,,,,,,,,,,,
2020,01,13,00,01,00,,,,,,,,,,,,,,,
2020,01,13,00,02,00,142.5,,,,,,,,,,,,,,
2020,01,13,00,03,00,154.4,,,,,,,,,,,,,,
2020,01,13,00,04,00,139.3,,,,,,,,,,,,,,
2020,01,13,00,05,00,136.1,,,,,,,,,,,,,,
2020,01,13,00,06,00,144.5,,,,,,,,,,,,,,
2020,01,13,00,07,00,163.6,,,,,,,,,,,,,,
2020,01,13,00,08,00,202.9,,,,,,,,,,,,,,
2020,01,13,00,09,00,174.7,,,,,,,,,,,,,,
2020,01,13,00,10,00,161.6,,,,,,,,,,,,,,
2020,01,13,00,11,00,144.6,,,,,,,,,,,,,,
2020,01,13,00,12,00,144.6,,,,,,,,,,,,,,
2020,01,13,00,13,00,146.8,,,,,,,,,,,,,,
2020,01,13,00,14,00,166.4,,,,,,,,,,,,,,
2020,01,13,00,15,00,205.8,,,,,,,,,,,,,,
2020,01,13,00,16,00,217.7,,,,,,,,,,,,,,
2020,01,13,00,17,00,189.7,,,,,,,,,,,,,,
2020,01,13,00,18,00,167.6,,,,,,,,,,,,,,
2020,01,13,00,19,00,167.6,,,,,,,,,,,,,,
2020,01,13,00,20,00,199.6,,,,,,,,,,,,,,
2020,01,13,00,21,00,221.8,,,,,,,,,,,,,,
2020,01,13,00,22,00,203.5,,,,,,,,,,,,,,
2020,01,13,00,23,00,159.1,,,,,,,,,,,,,,
2020,01,13,00,24,00,146.5,,,,,,,,,,,,,,
2020,01,13,00,25,00,141.7,,,,,,,,,,,,,,
2020,01,13,00,26,00,140.8,,,,,,,,,,,,,,
2020,01,13,00,27,00,137.4,,,,,,,,,,,,,,
2020,01,13,00,28,00,136.3,,,,,,,,,,,,,,
2020,01,13,00,29,00,138.2,,,,,,,,,,,,,,
2020,01,13,00,30,00,139.8,,,,,,,,,,,,,,
2020,01,13,00,31,00,140.5,,,,,,,,,,,,,,
2020,01,13,00,32,00,,,,,,,,,,,,,,,
2020,01,13,00,33,00,,,,,,,,,,,,,,,
2020,01,13,00,34,00,148.5,,,,,,,,,,,,,,
2020,01,13,00,35,00,136.9,,,,,,,,,,,,,,
2020,01,13,00,36,00,,,,,,,,,,,,,,,
2020,01,13,00,37,00,,,,,,,,,,,,,,,
2020,01,13,00,38,00,150.8,,,,,,,,,,,,,,
2020,01,13,00,39,00,165.5,,,,,,,,,,,,,,
2020,01,13,00,40,00,200.1,,,,,,,,,,,,,,
2020,01,13,00,41,00,156.7,,,,,,,,,,,,,,
2020,01,13,00,42,00,149.4,,,,,,,,,,,,,,
2020,01,13,00,43,00,149.7,,,,,,,,,,,,,,
2020,01,13,00,44,00,151.4,,,,,,,,,,,,,,
2020,01,13,00,45,00,147.6,,,,,,,,,,,,,,
2020,01,13,00,46,00,142.8,,,,,,,,,,,,,,
2020,01,13,00,47,00,141.9,,,,,,,,,,,,,,
2020,01,13,00,48,00,146.8,,,,,,,,,,,,,,
2020,01,13,00,49,00,152.1,,,,,,,,,,,,,,
2020,01,13,00,50,00,162.0,,,,,,,,,,,,,,
2020,01,13,00,51,00,172.9,,,,,,,,,,,,,,
2020,01,13,00,52,00,189.7,,,,,,,,,,,,,,
2020,01,13,00,53,00,189.7,,,,,,,,,,,,,,
2020,01,13,00,54,00,152.5,,,,,,,,,,,,,,
2020,01,13,00,55,00,144.8,,,,,,,,,,,,,,
2020,01,13,00,56,00,141.5,,,,,,,,,,,,,,
2020,01,13,00,57,00,136.2,,,,,,,,,,,,,,
2020,01,13,00,58,00,135.3,,,,,,,,,,,,,,
2020,01,13,00,59,00,133.6,,,,,,,,,,,,,,
2020,01,13,01,00,00,131.4,,,,,,,,,,,,,,
2020,01,13,01,01,00,135.7,,,,,,,,,,,,,,
2020,01,13,01,02,00,142.9,,,,,,,,,,,,,,
2020,01,13,01,03,00,141.4,,,,,,,,,,,,,,
2020,01,13,01,04,00,138.8,,,,,,,,,,,,,,
2020,01,13,01,05,00,137.7,,,,,,,,,,,,,,
2020,01,13,01,06,00,140.1,,,,,,,,,,,,,,
2020,01,13,01,07,00,145.3,,,,,,,,,,,,,,
2020,01,13,01,08,00,149.2,,,,,,,,,,,,,,
2020,01,13,01,09,00,143.6,,,,,,,,,,,,,,
2020,01,13,01,10,00,141.3,,,,,,,,,,,,,,
2020,01,13,01,11,00,144.6,,,,,,,,,,,,,,
2020,01,13,01,12,00,147.7,,,,,,,,,,,,,,
2020,01,13,01,13,00,151.9,,,,,,,,,,,,,,
2020,01,13,01,14,00,152.2,,,,,,,,,,,,,,
2020,01,13,01,15,00,163.0,,,,,,,,,,,,,,
2020,01,13,01,16,00,211.5,,,,,,,,,,,,,,
2020,01,13,01,17,00,205.6,,,,,,,,,,,,,,
2020,01,13,01,18,00,186.4,,,,,,,,,,,,,,
2020,01,13,01,19,00,152.3,,,,,,,,,,,,,,
2020,01,13,01,20,00,151.6,,,,,,,,,,,,,,
2020,01,13,01,21,00,156.1,,,,,,,,,,,,,,
2020,01,13,01,22,00,161.8,,,,,,,,,,,,,,
2020,01,13,01,23,00,158.1,,,,,,,,,,,,,,
2020,01,13,01,24,00,145.4,,,,,,,,,,,,,,
2020,01,13,01,25,00,143.4,,,,,,,,,,,,,,
2020,01,13,01,26,00,141.7,,,,,,,,,,,,,,
2020,01,13,01,27,00,147.2,,,,,,,,,,,,,,
2020,01,13,01,28,00,153.2,,,,,,,,,,,,,,
2020,01,13,01,29,00,162.7,,,,,,,,,,,,,,
2020,01,13,01,30,00,169.8,,,,,,,,,,,,,,
2020,01,13,01,31,00,152.5,,,,,,,,,,,,,,
2020,01,13,01,32,00,153.1,,,,,,,,,,,,,,
2020,01,13,01,33,00,159.9,,,,,,,,,,,,,,
2020,01,13,01,34,00,172.8,,,,,,,,,,,,,,
2020,01,13,01,35,00,185.0,,,,,,,,,,,,,,
2020,01,13,01,36,00,163.2,,,,,,,,,,,,,,
2020,01,13,01,37,00,152.0,,,,,,,,,,,,,,
2020,01,13,01,38,00,151.9,,,,,,,,,,,,,,
2020,01,13,01,39,00,150.0,,,,,,,,,,,,,,
2020,01,13,01,40,00,151.1,,,,,,,,,,,,,,
2020,01,13,01,41,00,146.4,,,,,,,,,,,,,,
2020,01,13,01,42,00,141.7,,,,,,,,,,,,,,
2020,01,13,01,43,00,142.2,,,,,,,,,,,,,,
2020,01,13,01,44,00,143.2,,,,,,,,,,,,,,
2020,01,13,01,45,00,146.2,,,,,,,,,,,,,,
2020,01,13,01,46,00,197.3,,,,,,,,,,,,,,
2020,01,13,01,47,00,223.2,,,,,,,,,,,,,,
2020,01,13,01,48,00,157.8,,,,,,,,,,,,,,
2020,01,13,01,49,00,158.2,,,,,,,,,,,,,,
2020,01,13,01,50,00,175.2,,,,,,,,,,,,,,
2020,01,13,01,51,00,171.6,,,,,,,,,,,,,,
2020,01,13,01,52,00,150.0,,,,,,,,,,,,,,
2020,01,13,01,53,00,150.4,,,,,,,,,,,,,,
2020,01,13,01,54,00,150.5,,,,,,,,,,,,,,
2020,01,13,01,55,00,175.7,,,,,,,,,,,,,,
2020,01,13,01,56,00,191.7,,,,,,,,,,,,,,
2020,01,13,01,57,00,165.4,,,,,,,,,,,,,,
2020,01,13,01,58,00,147.6,,,,,,,,,,,,,,
2020,01,13,01,59,00,151.5,,,,,,,,,,,,,,
2020,01,13,02,00,00,152.9,,,,,,,,,,,,,,
2020,01,13,02,01,00,149.9,,,,,,,,,,,,,,
2020,01,13,02,02,00,155.7,,,,,,,,,,,,,,
2020,01,13,02,03,00,174.5,,,,,,,,,,,,,,
2020,01,13,02,04,00,160.3,,,,,,,,,,,,,,
2020,01,13,02,05,00,152.4,,,,,,,,,,,,,,
2020,01,13,02,06,00,152.1,,,,,,,,,,,,,,
2020,01,13,02,07,00,151.6,,,,,,,,,,,,,,
2020,01,13,02,08,00,151.6,,,,,,,,,,,,,,
2020,01,13,02,09,00,157.5,,,,,,,,,,,,,,
2020,01,13,02,10,00,161.7,,,,,,,,,,,,,,
2020,01,13,02,11,00,151.8,,,,,,,,,,,,,,
2020,01,13,02,12,00,159.9,,,,,,,,,,,,,,
2020,01,13,02,13,00,180.5,,,,,,,,,,,,,,
2020,01,13,02,14,00,161.9,,,,,,,,,,,,,,
2020,01,13,02,15,00,187.7,,,,,,,,,,,,,,
2020,01,13,02,16,00,179.6,,,,,,,,,,,,,,
2020,01,13,02,17,00,152.7,,,,,,,,,,,,,,
2020,01,13,02,18,00,144.6,,,,,,,,,,,,,,
2020,01,13,02,19,00,150.0,,,,,,,,,,,,,,
2020,01,13,02,20,00,142.2,,,,,,,,,,,,,,
2020,01,13,02,21,00,155.2,,,,,,,,,,,,,,
2020,01,13,02,22,00,187.9,,,,,,,,,,,,,,
2020,01,13,02,23,00,169.3,,,,,,,,,,,,,,
2020,01,13,02,24,00,168.9,,,,,,,,,,,,,,
2020,01,13,02,25,00,165.1,,,,,,,,,,,,,,
2020,01,13,02,26,00,149.8,,,,,,,,,,,,,,
2020,01,13,02,27,00,134.9,,,,,,,,,,,,,,
2020,01,13,02,28,00,136.8,,,,,,,,,,,,,,
2020,01,13,02,29,00,134.0,,,,,,,,,,,,,,
2020,01,13,02,30,00,140.4,,,,,,,,,,,,,,
2020,01,13,02,31,00,,,,,,,,,,,,,,,
2020,01,13,02,32,00,,,,,,,,,,,,,,,
2020,01,13,02,33,00,148.1,,,,,,,,,,,,,,
2020,01,13,02,34,00,150.2,,,,,,,,,,,,,,
2020,01,13,02,35,00,140.9,,,,,,,,,,,,,,
2020,01,13,02,36,00,139.9,,,,,,,,,,,,,,
2020,01,13,02,37,00,147.4,,,,,,,,,,,,,,
2020,01,13,02,38,00,161.4,,,,,,,,,,,,,,
2020,01,13,02,39,00,195.4,,,,,,,,,,,,,,
2020,01,13,02,40,00,181.7,,,,,,,,,,,,,,
2020,01,13,02,41,00,161.8,,,,,,,,,,,,,,
2020,01,13,02,42,00,144.9,,,,,,,,,,,,,,
2020,01,13,02,43,00,141.0,,,,,,,,,,,,,,
2020,01,13,02,44,00,144.6,,,,,,,,,,,,,,
2020,01,13,02,45,00,164.2,,,,,,,,,,,,,,
2020,01,13,02,46,00,149.2,,,,,,,,,,,,,,
2020,01,13,02,47,00,142.7,,,,,,,,,,,,,,
2020,01,13,02,48,00,141.3,,,,,,,,,,,,,,
2020,01,13,02,49,00,139.5,,,,,,,,,,,,,,
2020,01,13,02,50,00,140.6,,,,,,,,,,,,,,
2020,01,13,02,51,00,145.1,,,,,,,,,,,,,,
2020,01,13,02,52,00,144.0,,,,,,,,,,,,,,
2020,01,13,02,53,00,147.8,,,,,,,,,,,,,,
2020,01,13,02,54,00,147.4,,,,,,,,,,,,,,
2020,01,13,02,55,00,152.1,,,,,,,,,,,,,,
2020,01,13,02,56,00,154.7,,,,,,,,,,,,,,
2020,01,13,02,57,00,150.5,,,,,,,,,,,,,,
2020,01,13,02,58,00,149.1,,,,,,,,,,,,,,
2020,01,13,02,59,00,151.0,,,,,,,,,,,,,,
2020,01,13,03,00,00,151.3,,,,,,,,,,,,,,
2020,01,13,03,01,00,162.0,,,,,,,,,,,,,,
2020,01,13,03,02,00,148.5,,,,,,,,,,,,,,
2020,01,13,03,03,00,146.0,,,,,,,,,,,,,,
2020,01,13,03,04,00,151.6,,,,,,,,,,,,,,
2020,01,13,03,05,00,150.9,,,,,,,,,,,,,,
2020,01,13,03,06,00,151.3,,,,,,,,,,,,,,
2020,01,13,03,07,00,149.0,,,,,,,,,,,,,,
2020,01,13,03,08,00,152.9,,,,,,,,,,,,,,
2020,01,13,03,09,00,165.9,,,,,,,,,,,,,,
2020,01,13,03,10,00,162.7,,,,,,,,,,,,,,
2020,01,13,03,11,00,172.8,,,,,,,,,,,,,,
2020,01,13,03,12,00,145.7,,,,,,,,,,,,,,
2020,01,13,03,13,00,149.0,,,,,,,,,,,,,,
2020,01,13,03,14,00,143.6,,,,,,,,,,,,,,
2020,01,13,03,15,00,147.9,,,,,,,,,,,,,,
2020,01,13,03,16,00,152.6,,,,,,,,,,,,,,
2020,01,13,03,17,00,177.2,,,,,,,,,,,,,,
2020,01,13,03,18,00,172.3,,,,,,,,,,,,,,
2020,01,13,03,19,00,152.2,,,,,,,,,,,,,,
2020,01,13,03,20,00,149.0,,,,,,,,,,,,,,
2020,01,13,03,21,00,151.1,,,,,,,,,,,,,,
2020,01,13,03,22,00,158.4,,,,,,,,,,,,,,
2020,01,13,03,23,00,163.2,,,,,,,,,,,,,,
2020,01,13,03,24,00,175.3,,,,,,,,,,,,,,
2020,01,13,03,25,00,168.3,,,,,,,,,,,,,,
2020,01,13,03,26,00,,,,,,,,,,,,,,,
2020,01,13,03,27,00,,,,,,,,,,,,,,,
2020,01,13,03,28,00,148.8,,,,,,,,,,,,,,
2020,01,13,03,29,00,151.5,,,,,,,,,,,,,,
2020,01,13,03,30,00,156.6,,,,,,,,,,,,,,
2020,01,13,03,31,00,160.3,,,,,,,,,,,,,,
2020,01,13,03,32,00,151.7,,,,,,,,,,,,,,
2020,01,13,03,33,00,150.4,,,,,,,,,,,,,,
2020,01,13,03,34,00,157.0,,,,,,,,,,,,,,
2020,01,13,03,35,00,172.1,,,,,,,,,,,,,,
2020,01,13,03,36,00,175.8,,,,,,,,,,,,,,
2020,01,13,03,37,00,154.1,,,,,,,,,,,,,,
2020,01,13,03,38,00,151.8,,,,,,,,,,,,,,
2020,01,13,03,39,00,167.6,,,,,,,,,,,,,,
2020,01,13,03,40,00,177.6,,,,,,,,,,,,,,
2020,01,13,03,41,00,147.6,,,,,,,,,,,,,,
2020,01,13,03,42,00,142.5,,,,,,,,,,,,,,
2020,01,13,03,43,00,144.7,,,,,,,,,,,,,,
2020,01,13,03,44,00,150.8,,,,,,,,,,,,,,
2020,01,13,03,45,00,190.2,,,,,,,,,,,,,,
2020,01,13,03,46,00,214.3,,,,,,,,,,,,,,
2020,01,13,03,47,00,172.4,,,,,,,,,,,,,,
2020,01,13,03,48,00,170.6,,,,,,,,,,,,,,
2020,01,13,03,49,00,183.3,,,,,,,,,,,,,,
2020,01,13,03,50,00,173.6,,,,,,,,,,,,,,
2020,01,13,03,51,00,161.6,,,,,,,,,,,,,,
2020,01,13,03,52,00,162.5,,,,,,,,,,,,,,
2020,01,13,03,53,00,159.6,,,,,,,,,,,,,,
2020,01,13,03,54,00,149.0,,,,,,,,,,,,,,
2020,01,13,03,55,00,148.8,,,,,,,,,,,,,,
2020,01,13,03,56,00,142.2,,,,,,,,,,,,,,
2020,01,13,03,57,00,149.6,,,,,,,,,,,,,,
2020,01,13,03,58,00,160.3,,,,,,,,,,,,,,
2020,01,13,03,59,00,189.6,,,,,,,,,,,,,,
2020,01,13,04,00,00,173.3,,,,,,,,,,,,,,
2020,01,13,04,01,00,159.2,,,,,,,,,,,,,,
2020,01,13,04,02,00,149.7,,,,,,,,,,,,,,
2020,01,13,04,03,00,141.6,,,,,,,,,,,,,,
2020,01,13,04,04,00,137.6,,,,,,,,,,,,,,
2020,01,13,04,05,00,140.8,,,,,,,,,,,,,,
2020,01,13,04,06,00,142.7,,,,,,,,,,,,,,
2020,01,13,04,07,00,136.8,,,,,,,,,,,,,,
2020,01,13,04,08,00,140.7,,,,,,,,,,,,,,
2020,01,13,04,09,00,143.3,,,,,,,,,,,,,,
2020,01,13,04,10,00,146.9,,,,,,,,,,,,,,
2020,01,13,04,11,00,155.0,,,,,,,,,,,,,,
2020,01,13,04,12,00,177.5,,,,,,,,,,,,,,
2020,01,13,04,13,00,182.8,,,,,,,,,,,,,,
2020,01,13,04,14,00,167.1,,,,,,,,,,,,,,
2020,01,13,04,15,00,169.2,,,,,,,,,,,,,,
2020,01,13,04,16,00,172.7,,,,,,,,,,,,,,
2020,01,13,04,17,00,179.3,,,,,,,,,,,,,,
2020,01,13,04,18,00,149.3,,,,,,,,,,,,,,
2020,01,13,04,19,00,145.3,,,,,,,,,,,,,,
2020,01,13,04,20,00,144.3,,,,,,,,,,,,,,
2020,01,13,04,21,00,151.4,,,,,,,,,,,,,,
2020,01,13,04,22,00,145.0,,,,,,,,,,,,,,
2020,01,13,04,23,00,142.8,,,,,,,,,,,,,,
2020,01,13,04,24,00,160.5,,,,,,,,,,,,,,
2020,01,13,04,25,00,172.5,,,,,,,,,,,,,,
2020,01,13,04,26,00,171.6,,,,,,,,,,,,,,
2020,01,13,04,27,00,154.2,,,,,,,,,,,,,,
2020,01,13,04,28,00,148.0,,,,,,,,,,,,,,
2020,01,13,04,29,00,150.4,,,,,,,,,,,,,,
2020,01,13,04,30,00,152.4,,,,,,,,,,,,,,
2020,01,13,04,31,00,174.9,,,,,,,,,,,,,,
2020,01,13,04,32,00,158.8,,,,,,,,,,,,,,
2020,01,13,04,33,00,147.7,,,,,,,,,,,,,,
2020,01,13,04,34,00,148.2,,,,,,,,,,,,,,
2020,01,13,04,35,00,144.2,,,,,,,,,,,,,,
2020,01,13,04,36,00,153.7,,,,,,,,,,,,,,
2020,01,13,04,37,00,153.4,,,,,,,,,,,,,,
2020,01,13,04,38,00,152.0,,,,,,,,,,,,,,
2020,01,13,04,39,00,156.9,,,,,,,,,,,,,,
2020,01,13,04,40,00,150.8,,,,,,,,,,,,,,
2020,01,13,04,41,00,144.3,,,,,,,,,,,,,,
2020,01,13,04,42,00,145.5,,,,,,,,,,,,,,
2020,01,13,04,43,00,145.3,,,,,,,,,,,,,,
2020,01,13,04,44,00,146.3,,,,,,,,,,,,,,
2020,01,13,04,45,00,143.6,,,,,,,,,,,,,,
2020,01,13,04,46,00,149.0,,,,,,,,,,,,,,
2020,01,13,04,47,00,162.1,,,,,,,,,,,,,,
2020,01,13,04,48,00,182.3,,,,,,,,,,,,,,
2020,01,13,04,49,00,175.8,,,,,,,,,,,,,,
2020,01,13,04,50,00,161.3,,,,,,,,,,,,,,
2020,01,13,04,51,00,171.8,,,,,,,,,,,,,,
2020,01,13,04,52,00,183.0,,,,,,,,,,,,,,
2020,01,13,04,53,00,159.4,,,,,,,,,,,,,,
2020,01,13,04,54,00,155.2,,,,,,,,,,,,,,
2020,01,13,04,55,00,165.7,,,,,,,,,,,,,,
2020,01,13,04,56,00,152.6,,,,,,,,,,,,,,
2020,01,13,04,57,00,147.0,,,,,,,,,,,,,,
2020,01,13,04,58,00,148.0,,,,,,,,,,,,,,
2020,01,13,04,59,00,151.8,,,,,,,,,,,,,,
2020,01,13,05,00,00,153.1,,,,,,,,,,,,,,
2020,01,13,05,01,00,152.4,,,,,,,,,,,,,,
2020,01,13,05,02,00,151.3,,,,,,,,,,,,,,
2020,01,13,05,03,00,147.9,,,,,,,,,,,,,,
2020,01,13,05,04,00,145.0,,,,,,,,,,,,,,
2020,01,13,05,05,00,147.7,,,,,,,,,,,,,,
2020,01,13,05,06,00,144.6,,,,,,,,,,,,,,
2020,01,13,05,07,00,145.7,,,,,,,,,,,,,,
2020,01,13,05,08,00,143.8,,,,,,,,,,,,,,
2020,01,13,05,09,00,147.6,,,,,,,,,,,,,,
2020,01,13,05,10,00,148.6,,,,,,,,,,,,,,
2020,01,13,05,11,00,158.9,,,,,,,,,,,,,,
2020,01,13,05,12,00,157.6,,,,,,,,,,,,,,
2020,01,13,05,13,00,153.1,,,,,,,,,,,,,,
2020,01,13,05,14,00,149.2,,,,,,,,,,,,,,
2020,01,13,05,15,00,146.1,,,,,,,,,,,,,,
2020,01,13,05,16,00,150.0,,,,,,,,,,,,,,
2020,01,13,05,17,00,156.0,,,,,,,,,,,,,,
2020,01,13,05,18,00,171.9,,,,,,,,,,,,,,
2020,01,13,05,19,00,170.0,,,,,,,,,,,,,,
2020,01,13,05,20,00,163.5,,,,,,,,,,,,,,
2020,01,13,05,21,00,156.8,,,,,,,,,,,,,,
2020,01,13,05,22,00,151.6,,,,,,,,,,,,,,
2020,01,13,05,23,00,146.8,,,,,,,,,,,,,,
2020,01,13,05,24,00,141.8,,,,,,,,,,,,,,
2020,01,13,05,25,00,147.9,,,,,,,,,,,,,,
2020,01,13,05,26,00,144.6,,,,,,,,,,,,,,
2020,01,13,05,27,00,147.7,,,,,,,,,,,,,,
2020,01,13,05,28,00,140.3,,,,,,,,,,,,,,
2020,01,13,05,29,00,144.2,,,,,,,,,,,,,,
2020,01,13,05,30,00,148.9,,,,,,,,,,,,,,
2020,01,13,05,31,00,151.8,,,,,,,,,,,,,,
2020,01,13,05,32,00,172.8,,,,,,,,,,,,,,
2020,01,13,05,33,00,171.8,,,,,,,,,,,,,,
2020,01,13,05,34,00,169.9,,,,,,,,,,,,,,
2020,01,13,05,35,00,153.8,,,,,,,,,,,,,,
2020,01,13,05,36,00,149.6,,,,,,,,,,,,,,
2020,01,13,05,37,00,149.1,,,,,,,,,,,,,,
2020,01,13,05,38,00,149.9,,,,,,,,,,,,,,
2020,01,13,05,39,00,140.1,,,,,,,,,,,,,,
2020,01,13,05,40,00,143.3,,,,,,,,,,,,,,
2020,01,13,05,41,00,142.3,,,,,,,,,,,,,,
2020,01,13,05,42,00,146.5,,,,,,,,,,,,,,
2020,01,13,05,43,00,141.1,,,,,,,,,,,,,,
2020,01,13,05,44,00,142.3,,,,,,,,,,,,,,
2020,01,13,05,45,00,141.7,,,,,,,,,,,,,,
2020,01,13,05,46,00,141.2,,,,,,,,,,,,,,
2020,01,13,05,47,00,144.0,,,,,,,,,,,,,,
2020,01,13,05,48,00,149.5,,,,,,,,,,,,,,
2020,01,13,05,49,00,140.8,,,,,,,,,,,,,,
2020,01,13,05,50,00,135.1,,,,,,,,,,,,,,
2020,01,13,05,51,00,136.7,,,,,,,,,,,,,,
2020,01,13,05,52,00,140.3,,,,,,,,,,,,,,
2020,01,13,05,53,00,135.4,,,,,,,,,,,,,,
2020,01,13,05,54,00,136.3,,,,,,,,,,,,,,
2020,01,13,05,55,00,140.4,,,,,,,,,,,,,,
2020,01,13,05,56,00,144.5,,,,,,,,,,,,,,
2020,01,13,05,57,00,146.7,,,,,,,,,,,,,,
2020,01,13,05,58,00,147.1,,,,,,,,,,,,,,
2020,01,13,05,59,00,142.8,,,,,,,,,,,,,,
2020,01,13,06,00,00,142.6,,,,,,,,,,,,,,
2020,01,13,06,01,00,146.6,,,,,,,,,,,,,,
2020,01,13,06,02,00,148.9,,,,,,,,,,,,,,
2020,01,13,06,03,00,141.8,,,,,,,,,,,,,,
2020,01,13,06,04,00,147.0,,,,,,,,,,,,,,
2020,01,13,06,05,00,149.6,,,,,,,,,,,,,,
2020,01,13,06,06,00,151.3,,,,,,,,,,,,,,
2020,01,13,06,07,00,178.1,,,,,,,,,,,,,,
2020,01,13,06,08,00,157.8,,,,,,,,,,,,,,
2020,01,13,06,09,00,143.6,,,,,,,,,,,,,,
2020,01,13,06,10,00,137.1,,,,,,,,,,,,,,
2020,01,13,06,11,00,137.1,,,,,,,,,,,,,,
2020,01,13,06,12,00,146.5,,,,,,,,,,,,,,
2020,01,13,06,13,00,144.5,,,,,,,,,,,,,,
2020,01,13,06,14,00,143.6,,,,,,,,,,,,,,
2020,01,13,06,15,00,141.5,,,,,,,,,,,,,,
2020,01,13,06,16,00,140.4,,,,,,,,,,,,,,
2020,01,13,06,17,00,141.5,,,,,,,,,,,,,,
2020,01,13,06,18,00,141.5,,,,,,,,,,,,,,
2020,01,13,06,19,00,156.7,,,,,,,,,,,,,,
2020,01,13,06,20,00,180.4,,,,,,,,,,,,,,
2020,01,13,06,21,00,175.7,,,,,,,,,,,,,,
2020,01,13,06,22,00,175.4,,,,,,,,,,,,,,
2020,01,13,06,23,00,181.7,,,,,,,,,,,,,,
2020,01,13,06,24,00,178.6,,,,,,,,,,,,,,
2020,01,13,06,25,00,187.4,,,,,,,,,,,,,,
2020,01,13,06,26,00,177.5,,,,,,,,,,,,,,
2020,01,13,06,27,00,155.6,,,,,,,,,,,,,,
2020,01,13,06,28,00,151.7,,,,,,,,,,,,,,
2020,01,13,06,29,00,148.9,,,,,,,,,,,,,,
2020,01,13,06,30,00,147.7,,,,,,,,,,,,,,
2020,01,13,06,31,00,147.1,,,,,,,,,,,,,,
2020,01,13,06,32,00,145.5,,,,,,,,,,,,,,
2020,01,13,06,33,00,145.3,,,,,,,,,,,,,,
2020,01,13,06,34,00,148.7,,,,,,,,,,,,,,
2020,01,13,06,35,00,149.4,,,,,,,,,,,,,,
2020,01,13,06,36,00,150.1,,,,,,,,,,,,,,
2020,01,13,06,37,00,150.4,,,,,,,,,,,,,,
2020,01,13,06,38,00,148.0,,,,,,,,,,,,,,
2020,01,13,06,39,00,150.1,,,,,,,,,,,,,,
2020,01,13,06,40,00,148.1,,,,,,,,,,,,,,
2020,01,13,06,41,00,147.3,,,,,,,,,,,,,,
2020,01,13,06,42,00,141.6,,,,,,,,,,,,,,
2020,01,13,06,43,00,142.8,,,,,,,,,,,,,,
2020,01,13,06,44,00,141.4,,,,,,,,,,,,,,
2020,01,13,06,45,00,144.5,,,,,,,,,,,,,,
2020,01,13,06,46,00,146.6,,,,,,,,,,,,,,
2020,01,13,06,47,00,159.3,,,,,,,,,,,,,,
2020,01,13,06,48,00,196.3,,,,,,,,,,,,,,
2020,01,13,06,49,00,194.4,,,,,,,,,,,,,,
2020,01,13,06,50,00,158.0,,,,,,,,,,,,,,
2020,01,13,06,51,00,149.9,,,,,,,,,,,,,,
2020,01,13,06,52,00,148.1,,,,,,,,,,,,,,
2020,01,13,06,53,00,151.3,,,,,,,,,,,,,,
2020,01,13,06,54,00,152.9,,,,,,,,,,,,,,
2020,01,13,06,55,00,165.9,,,,,,,,,,,,,,
2020,01,13,06,56,00,192.8,,,,,,,,,,,,,,
2020,01,13,06,57,00,177.2,,,,,,,,,,,,,,
2020,01,13,06,58,00,165.1,,,,,,,,,,,,,,
2020,01,13,06,59,00,187.8,,,,,,,,,,,,,,
2020,01,13,07,00,00,192.6,,,,,,,,,,,,,,
2020,01,13,07,01,00,174.9,,,,,,,,,,,,,,
2020,01,13,07,02,00,175.4,,,,,,,,,,,,,,
2020,01,13,07,03,00,207.6,,,,,,,,,,,,,,
2020,01,13,07,04,00,207.4,,,,,,,,,,,,,,
2020,01,13,07,05,00,179.3,,,,,,,,,,,,,,
2020,01,13,07,06,00,166.5,,,,,,,,,,,,,,
2020,01,13,07,07,00,152.3,,,,,,,,,,,,,,
2020,01,13,07,08,00,153.7,,,,,,,,,,,,,,
2020,01,13,07,09,00,150.6,,,,,,,,,,,,,,
2020,01,13,07,10,00,148.0,,,,,,,,,,,,,,
2020,01,13,07,11,00,148.5,,,,,,,,,,,,,,
2020,01,13,07,12,00,150.6,,,,,,,,,,,,,,
2020,01,13,07,13,00,151.4,,,,,,,,,,,,,,
2020,01,13,07,14,00,154.6,,,,,,,,,,,,,,
2020,01,13,07,15,00,173.0,,,,,,,,,,,,,,
2020,01,13,07,16,00,190.2,,,,,,,,,,,,,,
2020,01,13,07,17,00,209.9,,,,,,,,,,,,,,
2020,01,13,07,18,00,204.4,,,,,,,,,,,,,,
2020,01,13,07,19,00,202.4,,,,,,,,,,,,,,
2020,01,13,07,20,00,,,,,,,,,,,,,,,
2020,01,13,07,21,00,,,,,,,,,,,,,,,
2020,01,13,07,22,00,151.1,,,,,,,,,,,,,,
2020,01,13,07,23,00,154.2,,,,,,,,,,,,,,
2020,01,13,07,24,00,173.4,,,,,,,,,,,,,,
2020,01,13,07,25,00,182.8,,,,,,,,,,,,,,
2020,01,13,07,26,00,177.7,,,,,,,,,,,,,,
2020,01,13,07,27,00,177.7,,,,,,,,,,,,,,
2020,01,13,07,28,00,181.3,,,,,,,,,,,,,,
2020,01,13,07,29,00,169.4,,,,,,,,,,,,,,
2020,01,13,07,30,00,169.0,,,,,,,,,,,,,,
2020,01,13,07,31,00,172.8,,,,,,,,,,,,,,
2020,01,13,07,32,00,183.1,,,,,,,,,,,,,,
2020,01,13,07,33,00,177.3,,,,,,,,,,,,,,
2020,01,13,07,34,00,178.3,,,,,,,,,,,,,,
2020,01,13,07,35,00,167.5,,,,,,,,,,,,,,
2020,01,13,07,36,00,173.5,,,,,,,,,,,,,,
2020,01,13,07,37,00,172.3,,,,,,,,,,,,,,
2020,01,13,07,38,00,177.7,,,,,,,,,,,,,,
2020,01,13,07,39,00,182.3,,,,,,,,,,,,,,
2020,01,13,07,40,00,186.0,,,,,,,,,,,,,,
2020,01,13,07,41,00,161.3,,,,,,,,,,,,,,
2020,01,13,07,42,00,147.3,,,,,,,,,,,,,,
2020,01,13,07,43,00,149.6,,,,,,,,,,,,,,
2020,01,13,07,44,00,145.3,,,,,,,,,,,,,,
2020,01,13,07,45,00,144.0,,,,,,,,,,,,,,
2020,01,13,07,46,00,145.7,,,,,,,,,,,,,,
2020,01,13,07,47,00,145.1,,,,,,,,,,,,,,
2020,01,13,07,48,00,144.6,,,,,,,,,,,,,,
2020,01,13,07,49,00,143.5,,,,,,,,,,,,,,
2020,01,13,07,50,00,147.5,,,,,,,,,,,,,,
2020,01,13,07,51,00,147.1,,,,,,,,,,,,,,
2020,01,13,07,52,00,150.3,,,,,,,,,,,,,,
2020,01,13,07,53,00,149.5,,,,,,,,,,,,,,
2020,01,13,07,54,00,150.9,,,,,,,,,,,,,,
2020,01,13,07,55,00,175.1,,,,,,,,,,,,,,
2020,01,13,07,56,00,187.0,,,,,,,,,,,,,,
2020,01,13,07,57,00,200.8,,,,,,,,,,,,,,
2020,01,13,07,58,00,207.9,,,,,,,,,,,,,,
2020,01,13,07,59,00,237.9,,,,,,,,,,,,,,
2020,01,13,08,00,00,250.1,,,,,,,,,,,,,,
2020,01,13,08,01,00,272.4,,,,,,,,,,,,,,
2020,01,13,08,02,00,330.3,,,,,,,,,,,,,,
2020,01,13,08,03,00,328.1,,,,,,,,,,,,,,
2020,01,13,08,04,00,263.8,,,,,,,,,,,,,,
2020,01,13,08,05,00,205.3,,,,,,,,,,,,,,
2020,01,13,08,06,00,180.9,,,,,,,,,,,,,,
2020,01,13,08,07,00,156.7,,,,,,,,,,,,,,
2020,01,13,08,08,00,,,,,,,,,,,,,,,
2020,01,13,08,09,00,,,,,,,,,,,,,,,
2020,01,13,08,10,00,157.9,,,,,,,,,,,,,,
2020,01,13,08,11,00,152.1,,,,,,,,,,,,,,
2020,01,13,08,12,00,156.9,,,,,,,,,,,,,,
2020,01,13,08,13,00,172.7,,,,,,,,,,,,,,
2020,01,13,08,14,00,160.8,,,,,,,,,,,,,,
2020,01,13,08,15,00,156.6,,,,,,,,,,,,,,
2020,01,13,08,16,00,165.4,,,,,,,,,,,,,,
2020,01,13,08,17,00,151.1,,,,,,,,,,,,,,
2020,01,13,08,18,00,152.2,,,,,,,,,,,,,,
2020,01,13,08,19,00,162.7,,,,,,,,,,,,,,
2020,01,13,08,20,00,168.3,,,,,,,,,,,,,,
2020,01,13,08,21,00,161.3,,,,,,,,,,,,,,
2020,01,13,08,22,00,159.6,,,,,,,,,,,,,,
2020,01,13,08,23,00,151.3,,,,,,,,,,,,,,
2020,01,13,08,24,00,155.7,,,,,,,,,,,,,,
2020,01,13,08,25,00,152.6,,,,,,,,,,,,,,
2020,01,13,08,26,00,163.2,,,,,,,,,,,,,,
2020,01,13,08,27,00,163.4,,,,,,,,,,,,,,
2020,01,13,08,28,00,,,,,,,,,,,,,,,
2020,01,13,08,29,00,,,,,,,,,,,,,,,
2020,01,13,08,30,00,179.6,,,,,,,,,,,,,,
2020,01,13,08,31,00,176.7,,,,,,,,,,,,,,
2020,01,13,08,32,00,178.1,,,,,,,,,,,,,,
2020,01,13,08,33,00,191.1,,,,,,,,,,,,,,
2020,01,13,08,34,00,211.3,,,,,,,,,,,,,,
2020,01,13,08,35,00,230.3,,,,,,,,,,,,,,
2020,01,13,08,36,00,220.1,,,,,,,,,,,,,,
2020,01,13,08,37,00,205.6,,,,,,,,,,,,,,
2020,01,13,08,38,00,196.7,,,,,,,,,,,,,,
2020,01,13,08,39,00,184.7,,,,,,,,,,,,,,
2020,01,13,08,40,00,181.1,,,,,,,,,,,,,,
2020,01,13,08,41,00,194.4,,,,,,,,,,,,,,
2020,01,13,08,42,00,181.1,,,,,,,,,,,,,,
2020,01,13,08,43,00,176.0,,,,,,,,,,,,,,
2020,01,13,08,44,00,176.5,,,,,,,,,,,,,,
2020,01,13,08,45,00,196.1,,,,,,,,,,,,,,
2020,01,13,08,46,00,206.7,,,,,,,,,,,,,,
2020,01,13,08,47,00,202.4,,,,,,,,,,,,,,
2020,01,13,08,48,00,207.0,,,,,,,,,,,,,,
2020,01,13,08,49,00,213.8,,,,,,,,,,,,,,
2020,01,13,08,50,00,221.3,,,,,,,,,,,,,,
2020,01,13,08,51,00,234.4,,,,,,,,,,,,,,
2020,01,13,08,52,00,260.8,,,,,,,,,,,,,,
2020,01,13,08,53,00,224.0,,,,,,,,,,,,,,
2020,01,13,08,54,00,205.2,,,,,,,,,,,,,,
2020,01,13,08,55,00,217.6,,,,,,,,,,,,,,
2020,01,13,08,56,00,249.4,,,,,,,,,,,,,,
2020,01,13,08,57,00,294.4,,,,,,,,,,,,,,
2020,01,13,08,58,00,333.1,,,,,,,,,,,,,,
2020,01,13,08,59,00,357.1,,,,,,,,,,,,,,
2020,01,13,09,00,00,361.7,,,,,,,,,,,,,,
2020,01,13,09,01,00,321.8,,,,,,,,,,,,,,
2020,01,13,09,02,00,278.4,,,,,,,,,,,,,,
2020,01,13,09,03,00,290.6,,,,,,,,,,,,,,
2020,01,13,09,04,00,302.0,,,,,,,,,,,,,,
2020,01,13,09,05,00,284.0,,,,,,,,,,,,,,
2020,01,13,09,06,00,273.0,,,,,,,,,,,,,,
2020,01,13,09,07,00,276.3,,,,,,,,,,,,,,
2020,01,13,09,08,00,293.3,,,,,,,,,,,,,,
2020,01,13,09,09,00,288.9,,,,,,,,,,,,,,
2020,01,13,09,10,00,327.2,,,,,,,,,,,,,,
2020,01,13,09,11,00,376.6,,,,,,,,,,,,,,
2020,01,13,09,12,00,372.9,,,,,,,,,,,,,,
2020,01,13,09,13,00,372.8,,,,,,,,,,,,,,
2020,01,13,09,14,00,375.4,,,,,,,,,,,,,,
2020,01,13,09,15,00,342.1,,,,,,,,,,,,,,
2020,01,13,09,16,00,294.3,,,,,,,,,,,,,,
2020,01,13,09,17,00,282.2,,,,,,,,,,,,,,
2020,01,13,09,18,00,283.4,,,,,,,,,,,,,,
2020,01,13,09,19,00,286.6,,,,,,,,,,,,,,
2020,01,13,09,20,00,290.9,,,,,,,,,,,,,,
2020,01,13,09,21,00,305.8,,,,,,,,,,,,,,
2020,01,13,09,22,00,294.0,,,,,,,,,,,,,,
2020,01,13,09,23,00,280.5,,,,,,,,,,,,,,
2020,01,13,09,24,00,280.7,,,,,,,,,,,,,,
2020,01,13,09,25,00,258.7,,,,,,,,,,,,,,
2020,01,13,09,26,00,241.4,,,,,,,,,,,,,,
2020,01,13,09,27,00,294.5,,,,,,,,,,,,,,
2020,01,13,09,28,00,269.0,,,,,,,,,,,,,,
2020,01,13,09,29,00,245.8,,,,,,,,,,,,,,
2020,01,13,09,30,00,225.4,,,,,,,,,,,,,,
2020,01,13,09,31,00,221.2,,,,,,,,,,,,,,
2020,01,13,09,32,00,246.7,,,,,,,,,,,,,,
2020,01,13,09,33,00,268.1,,,,,,,,,,,,,,
2020,01,13,09,34,00,308.1,,,,,,,,,,,,,,
2020,01,13,09,35,00,319.9,,,,,,,,,,,,,,
2020,01,13,09,36,00,289.6,,,,,,,,,,,,,,
2020,01,13,09,37,00,269.0,,,,,,,,,,,,,,
2020,01,13,09,38,00,271.8,,,,,,,,,,,,,,
2020,01,13,09,39,00,275.1,,,,,,,,,,,,,,
2020,01,13,09,40,00,287.9,,,,,,,,,,,,,,
2020,01,13,09,41,00,284.9,,,,,,,,,,,,,,
2020,01,13,09,42,00,248.6,,,,,,,,,,,,,,
2020,01,13,09,43,00,249.8,,,,,,,,,,,,,,
2020,01,13,09,44,00,259.9,,,,,,,,,,,,,,
2020,01,13,09,45,00,273.9,,,,,,,,,,,,,,
2020,01,13,09,46,00,281.0,,,,,,,,,,,,,,